Starlink 32631

operational
NORAD ID: 62235 Int'l Des: 2024-231 Owner: SPXS Country: US Constellation: starlink
LEOCIRCULAR

Starlink 32631について

説明を読み込み中...

リアルタイム位置

3D地球を読み込み中...

次回通過

高度履歴

Altitude vs Time

uPlot chart will show altitude changes over time

軌道要素

1 62235U 24231T 25352.65291554 .00019586 00000-0 67226-3 0 9999
2 62235 53.1577 223.0914 0001312 96.1167 263.9983 15.30170596 59535
Epoch: Dec 18, 2025 • Age: 7 hours

現在のステータス

高度 482.0 km
速度 7.62 km/s
衛星直下点 -22.53°S, 10.8°W
打ち上げ日 Dec 5, 2024
運用期間 1 years
タイプ internet

技術仕様

分類 Payload
質量 730.00 kg
乾燥質量 700.00 kg
総質量 730.00 kg
長さ 0.30 m
直径 4.10 m
スパン 29.00 m
形状 Box + pan
製造者 SPXS
バスタイプ Starlink V2M
フェーズステータス In Orbit
所有者/国 SPXS/US

大規模コンステレーション

Loading constellations...